GAINDESAT-1A (60529 NORAD) Tracking and Keplerian Element Data

This shows tracking and keplerian element data for the satellite.

Feedback or suggestion? Click here.




ElementValue
Catalog60529
NameGAINDESAT-1A
Epoch Orbit865
Epoch Day286.74994125
Epoch Year2024
RAAN1.6281
Inclination97.4401
Eccentricity0.0007784
Argument of Perigee306.2011
Mean Anonmoly53.8505
Mean Motion15.22902939
Decay Rate0.00033975
L11 60529U 24149BP 24286.74994125 .00033975 00000+0 14455-2 0 9992
L22 60529 97.4401 1.6281 0007784 306.2011 53.8505 15.22902939 8653



Live tracking and technical data element details for GAINDESAT-1A (NORAD 60529). GAINDESAT-1A can be tracked NOW for your location showing map with azimuth and elevation plus other details from your city location.







IsCatalogInMostPopularTable: catalog: 60529, numindb: 5
Update: records affected: 1



GetName: 60529 GAINDESAT-1A

Hit Count: updated at: Wed, 04 Dec 2024 19:10:35 GMT